GW5351 Weather Reports


Display with metric or nautical units.
time (UTC)temp
F
wind
direction
speed
MPH
gust
MPH
rain 1hr
in
rain 24hr
in
rain mn
in
humidity
%
barometer
mb
20260505052638 70 191 1.0 2.0 0.00 0.00 0.00 87 1011.4
20260505052135 70 203 3.0 4.0 0.00 0.00 0.00 87 1011.5
20260505051631 71 215 2.0 3.0 0.00 0.00 0.00 86 1011.6
20260505051130 71 203 2.0 3.0 0.00 0.00 0.00 86 1011.5
20260505050627 71 205 2.0 6.0 0.00 0.00 0.00 86 1011.4
20260505050125 71 203 2.0 4.0 0.00 0.00 0.00 86 1011.5
20260505041555 71 210 2.0 8.0 0.00 0.00 0.00 84 1011.6
20260505041052 72 209 2.0 8.0 0.00 0.00 0.00 83 1011.5
20260505040549 72 232 4.0 8.0 0.00 0.00 0.00 83 1011.3
20260505040046 72 244 3.0 9.0 0.00 0.00 0.00 83 1011.5
20260505035542 72 178 5.0 6.0 0.00 0.00 0.00 82 1011.6
20260505035040 72 115 5.0 7.0 0.00 0.00 0.00 82 1011.7
20260505034536 72 203 1.0 4.0 0.00 0.00 0.00 82 1011.7
20260505034033 72 201 7.0 8.0 0.00 0.00 0.00 81 1011.5
20260505033530 73 171 3.0 9.0 0.00 0.00 0.00 81 1011.6
20260505033028 73 215 1.0 4.0 0.00 0.00 0.00 81 1011.8
20260505032525 73 201 2.0 6.0 0.00 0.00 0.00 81 1011.9
20260505032022 73 165 1.0 7.0 0.00 0.00 0.00 81 1011.7
20260505031519 73 206 3.0 7.0 0.00 0.00 0.00 81 1011.9
20260505031015 73 183 3.0 6.0 0.00 0.00 0.00 81 1011.7
20260505030512 73 270 3.0 9.0 0.00 0.00 0.00 80 1011.7
20260505030008 73 246 4.0 7.0 0.00 0.00 0.00 80 1011.6
20260505025504 73 180 2.0 4.0 0.00 0.00 0.00 80 1011.6
20260505025004 73 184 2.0 6.0 0.00 0.00 0.00 79 1011.3
20260505024500 73 217 2.0 3.0 0.00 0.00 0.00 79 1011.4
20260505023957 73 220 2.0 4.0 0.00 0.00 0.00 79 1011.3
20260505023454 74 262 4.0 6.0 0.00 0.00 0.00 78 1011.4
20260505022952 74 207 3.0 4.0 0.00 0.00 0.00 78 1011.6
20260505022449 74 165 3.0 8.0 0.00 0.00 0.00 77 1011.6
20260505021946 74 262 6.0 8.0 0.00 0.00 0.00 77 1011.5
20260505021442 74 219 2.0 3.0 0.00 0.00 0.00 77 1011.4
20260505020938 75 194 2.0 8.0 0.00 0.00 0.00 77 1011.4
20260505020433 75 194 2.0 9.0 0.00 0.00 0.00 76 1011.2
20260505015931 75 230 2.0 3.0 0.00 0.00 0.00 77 1011.4
20260505015428 75 206 0.0 7.0 0.00 0.00 0.00 77 1011.2
20260505014925 74 222 2.0 6.0 0.00 0.00 0.00 77 1011.2
20260505014422 74 194 1.0 4.0 0.00 0.00 0.00 77 1011.1
20260505013919 74 232 3.0 4.0 0.00 0.00 0.00 77 1011.2
20260505013416 74 202 3.0 3.0 0.00 0.00 0.00 78 1011.1
20260505012914 74 132 2.0 3.0 0.00 0.00 0.00 77 1011.2
20260505012411 74 211 2.0 4.0 0.00 0.00 0.00 77 1010.9
20260505011908 74 219 2.0 3.0 0.00 0.00 0.00 77 1010.8
20260505011404 74 179 2.0 4.0 0.00 0.00 0.00 77 1010.8
20260505010901 74 206 1.0 2.0 0.00 0.00 0.00 76 1010.9
20260505010357 75 216 2.0 4.0 0.00 0.00 0.00 76 1011.1
20260505005853 75 195 2.0 4.0 0.00 0.00 0.00 75 1011.1
20260505005350 75 221 1.0 3.0 0.00 0.00 0.00 75 1011.1
20260505004848 75 202 2.0 3.0 0.00 0.00 0.00 74 1011.0
20260505004343 76 195 2.0 4.0 0.00 0.00 0.00 73 1010.9
20260505003841 76 157 2.0 7.0 0.00 0.00 0.00 73 1010.9
20260505003338 76 196 5.0 8.0 0.00 0.00 0.00 72 1010.9
20260505002834 76 166 1.0 7.0 0.00 0.00 0.00 72 1011.0
20260505002331 77 219 2.0 3.0 0.00 0.00 0.00 71 1011.1
20260505001829 77 151 2.0 4.0 0.00 0.00 0.00 71 1010.9
20260505001326 77 195 4.0 8.0 0.00 0.00 0.00 71 1010.8
20260505000823 77 222 2.0 7.0 0.00 0.00 0.00 70 1010.9
20260505000321 77 200 1.0 4.0 0.00 0.00 0.00 70 1011.2
20260504235817 77 195 2.0 6.0 0.00 0.00 0.00 70 1011.2
20260504235314 77 179 3.0 4.0 0.00 0.00 0.00 70 1011.1
20260504234811 78 183 3.0 7.0 0.00 0.00 0.00 70 1011.1
20260504234309 78 237 3.0 6.0 0.00 0.00 0.00 69 1011.0
20260504233805 78 220 4.0 4.0 0.00 0.00 0.00 68 1011.0
20260504233300 78 196 1.0 4.0 0.00 0.00 0.00 68 1011.3
20260504232758 78 214 3.0 6.0 0.00 0.00 0.00 68 1011.1
20260504232255 79 223 2.0 3.0 0.00 0.00 0.00 67 1011.3
20260504231752 79 147 5.0 9.0 0.00 0.00 0.00 66 1011.2
20260504231248 79 238 2.0 7.0 0.00 0.00 0.00 65 1011.3
20260504230744 79 237 3.0 6.0 0.00 0.00 0.00 65 1011.4
20260504230242 79 168 5.0 11.0 0.00 0.00 0.00 64 1011.3
20260504225741 79 257 5.0 11.0 0.00 0.00 0.00 64 1011.6
20260504225237 80 222 4.0 8.0 0.00 0.00 0.00 64 1011.6
20260504224734 80 238 4.0 8.0 0.00 0.00 0.00 63 1011.4
20260504224231 80 127 4.0 6.0 0.00 0.00 0.00 63 1011.6
20260504223728 80 238 1.0 7.0 0.00 0.00 0.00 63 1011.5
20260504223223 80 154 6.0 8.0 0.00 0.00 0.00 62 1011.5
20260504222721 80 187 4.0 7.0 0.00 0.00 0.00 62 1011.6
20260504222217 81 208 2.0 4.0 0.00 0.00 0.00 61 1011.9
20260504221714 81 220 2.0 4.0 0.00 0.00 0.00 61 1011.8
20260504221211 80 187 1.0 6.0 0.00 0.00 0.00 61 1011.8
20260504220708 80 221 2.0 6.0 0.00 0.00 0.00 61 1011.8
20260504220206 80 213 4.0 8.0 0.00 0.00 0.00 61 1012.0
20260504215702 80 152 3.0 6.0 0.00 0.00 0.00 61 1011.8
20260504215159 81 173 4.0 9.0 0.00 0.00 0.00 60 1012.1
20260504214655 82 231 3.0 4.0 0.00 0.00 0.00 59 1012.1
20260504214151 81 231 1.0 7.0 0.00 0.00 0.00 60 1011.9
20260504213648 81 188 2.0 6.0 0.00 0.00 0.00 59 1012.3
20260504213145 82 151 2.0 6.0 0.00 0.00 0.00 59 1012.4
20260504212641 82 197 2.0 2.0 0.00 0.00 0.00 58 1012.1
20260504212138 82 240 5.0 9.0 0.00 0.00 0.00 57 1012.3
20260504211636 82 209 2.0 4.0 0.00 0.00 0.00 58 1012.4
20260504211132 82 198 4.0 7.0 0.00 0.00 0.00 58 1012.6
20260504210630 81 102 4.0 7.0 0.00 0.00 0.00 58 1012.5
20260504210125 83 242 6.0 9.0 0.00 0.00 0.00 56 1012.7
20260504205623 85 174 2.0 7.0 0.00 0.00 0.00 54 1012.7
20260504205121 83 225 1.0 6.0 0.00 0.00 0.00 56 1012.7
20260504204619 82 104 3.0 6.0 0.00 0.00 0.00 56 1012.9
20260504204118 82 170 3.0 4.0 0.00 0.00 0.00 56 1012.9
20260504203616 81 227 1.0 4.0 0.00 0.00 0.00 58 1013.0
20260504203114 81 211 3.0 8.0 0.00 0.00 0.00 58 1013.0
20260504202609 82 264 2.0 4.0 0.00 0.00 0.00 58 1013.1
20260504202106 82 200 7.0 9.0 0.00 0.00 0.00 57 1013.2
20260504201603 82 223 4.0 6.0 0.00 0.00 0.00 57 1013.3
20260504201100 81 225 3.0 4.0 0.00 0.00 0.00 58 1013.6
20260504200556 81 250 3.0 4.0 0.00 0.00 0.00 58 1013.5
20260504200053 81 247 5.0 8.0 0.00 0.00 0.00 57 1013.7
20260504195549 80 188 1.0 8.0 0.00 0.00 0.00 58 1013.8
20260504195046 80 270 4.0 8.0 0.00 0.00 0.00 58 1013.9
20260504194542 81 175 2.0 6.0 0.00 0.00 0.00 58 1014.0
20260504194038 81 208 2.0 4.0 0.00 0.00 0.00 58 1014.2
20260504193535 81 182 3.0 6.0 0.00 0.00 0.00 58 1014.0
20260504193034 82 168 2.0 4.0 0.00 0.00 0.00 56 1014.2
20260504192531 81 222 0.0 4.0 0.00 0.00 0.00 59 1014.0
20260504192029 80 221 2.0 7.0 0.00 0.00 0.00 59 1014.1
20260504191527 81 243 5.0 11.0 0.00 0.00 0.00 58 1014.3
20260504191023 81 219 1.0 3.0 0.00 0.00 0.00 58 1014.5
20260504190519 81 235 3.0 6.0 0.00 0.00 0.00 57 1014.7
20260504190015 80 209 4.0 4.0 0.00 0.00 0.00 57 1014.5
20260504185512 81 73 2.0 9.0 0.00 0.00 0.00 57 1014.6
20260504185009 81 212 1.0 3.0 0.00 0.00 0.00 56 1014.5
20260504184504 81 210 2.0 3.0 0.00 0.00 0.00 56 1014.6
20260504184000 81 208 2.0 6.0 0.00 0.00 0.00 55 1014.8
20260504183457 80 234 4.0 7.0 0.00 0.00 0.00 56 1015.0
20260504182955 80 192 1.0 6.0 0.00 0.00 0.00 55 1014.8
20260504182452 81 207 4.0 8.0 0.00 0.00 0.00 55 1015.0
20260504181949 80 150 2.0 6.0 0.00 0.00 0.00 58 1015.1
20260504181446 80 220 4.0 9.0 0.00 0.00 0.00 57 1014.9
20260504180944 79 218 3.0 9.0 0.00 0.00 0.00 59 1015.1
20260504180443 79 141 1.0 8.0 0.00 0.00 0.00 60 1015.0
20260504175941 79 225 2.0 6.0 0.00 0.00 0.00 59 1015.2
20260504175438 79 259 4.0 6.0 0.00 0.00 0.00 58 1015.4
20260504174936 79 241 3.0 10.0 0.00 0.00 0.00 59 1015.4
20260504174433 79 213 4.0 7.0 0.00 0.00 0.00 58 1015.3
20260504173930 79 218 5.0 7.0 0.00 0.00 0.00 59 1015.4
20260504173426 78 255 2.0 4.0 0.00 0.00 0.00 60 1015.6
20260504172924 78 201 4.0 6.0 0.00 0.00 0.00 60 1015.4
20260504172420 78 161 2.0 3.0 0.00 0.00 0.00 61 1015.4
20260504171916 78 175 6.0 9.0 0.00 0.00 0.00 59 1015.8
20260504171414 79 142 2.0 6.0 0.00 0.00 0.00 60 1015.8
20260504170910 79 232 4.0 7.0 0.00 0.00 0.00 58 1015.8
20260504170407 78 252 5.0 8.0 0.00 0.00 0.00 58 1016.0
20260504160326 77 23 2.0 6.0 0.00 0.00 0.00 62 1016.6
20260504150750 74 201 2.0 7.0 0.00 0.00 0.00 66 1016.9
20260504150247 74 201 3.0 7.0 0.00 0.00 0.00 66 1017.1
20260504141217 71 213 1.0 4.0 0.00 0.00 0.00 68 1016.9
20260504140714 70 227 3.0 6.0 0.00 0.00 0.00 68 1016.9
20260504140209 70 201 1.0 3.0 0.00 0.00 0.00 70 1016.9
20260504130637 62 197 0.0 0.0 0.00 0.00 0.00 83 1016.5
20260504130134 61 197 1.0 1.0 0.00 0.00 0.00 85 1016.7
20260504110525 55 198 0.0 0.0 0.00 0.00 0.00 94 1016.2
20260504100442 55 198 0.0 0.0 0.00 0.00 0.00 95 1016.7
20260504081840 57 197 0.0 0.0 0.00 0.00 0.00 90 1017.4
20260504081337 57 197 0.0 0.0 0.00 0.00 0.00 91 1017.4
20260504080833 57 197 0.0 0.0 0.00 0.00 0.00 90 1017.4
20260504080330 57 197 0.0 0.0 0.00 0.00 0.00 89 1017.5
20260504070257 59 197 0.0 0.0 0.00 0.00 0.00 86 1018.3
20260504060218 60 197 0.0 0.0 0.00 0.00 0.00 79 1018.8